Highgate, VT

7:29 PM EDT on September 22, 2019 (GMT -0400)
Franklin County State

Weather History for KFSO - August, 2019

Change the Weather History Date:

Tuesday, August 20, 2019

  Actual Average (WUND) Record (WUND)
Temperature  
Mean Temperature 71 °F -  
Max Temperature 85 °F - - (-1)
Min Temperature 57 °F - - (-1)
Cooling Degree Days 6    
Growing Degree Days 21 (Base 50)    
Moisture  
Dew Point 60 °F    
Average Humidity 71    
Maximum Humidity 96    
Minimum Humidity 31    
Precipitation  
Precipitation 0.00 in - - ()
Sea Level Pressure  
Sea Level Pressure 30.03 in    
Wind  
Wind Speed 1 mph (SSW)    
Max Wind Speed 9 mph    
Max Gust Speed -    
Visibility 10 miles    
Events      
Averages and records for this station are not official NWS values.
T = Trace of Precipitation, MM = Missing Value Source: NWS Daily Summary

Daily Weather History Graph

Daily Weather History Graph

Search for Another Location

Airport or City:

Astronomy

Aug. 20, 2019 Rise Set
Actual Time 5:59 AM EDT 7:50 PM EDT
Civil Twilight 5:28 AM EDT 8:22 PM EDT
Nautical Twilight 4:50 AM EDT 9:00 PM EDT
Astronomical Twilight 4:08 AM EDT 9:41 PM EDT
Moon 10:25 PM EDT (8/20) 10:46 AM EDT (8/20)
Length of Visible Light 14h 53m
Length of Day
13h 50m
Waning Gibbous, 78% of the Moon is Illuminated
Aug 20
Waning Gibbous
Aug 23
Last Quarter
Aug 30
New
Sep 5
First Quarter
Sep 14
Full

Hourly Weather History & Observations

Time (EDT) Temp. Heat Index Dew Point Humidity Pressure Visibility Wind Dir Wind Speed Gust Speed Precip Events Conditions
12:16 AM 70.7 °F - 65.1 °F 82% 29.98 in 10.0 mi Calm Calm - N/A   Clear
12:35 AM 69.3 °F - 64.9 °F 86% 29.99 in 10.0 mi Calm Calm - N/A   Clear
12:56 AM 68.5 °F - 64.8 °F 88% 30.00 in 10.0 mi Calm Calm - N/A   Clear
1:15 AM 67.5 °F - 64.0 °F 89% 30.00 in 10.0 mi Calm Calm - N/A   Clear
1:36 AM 66.7 °F - 62.8 °F 87% 30.01 in 10.0 mi Calm Calm - N/A   Clear
2:15 AM 64.6 °F - 62.8 °F 94% 30.01 in 10.0 mi Calm Calm - N/A   Clear
2:36 AM 63.7 °F - 62.1 °F 94% 30.02 in 10.0 mi Calm Calm - N/A   Clear
2:55 AM 63.0 °F - 61.7 °F 96% 30.02 in 10.0 mi Calm Calm - N/A   Clear
3:15 AM 62.8 °F - 61.7 °F 96% 30.03 in 10.0 mi Calm Calm - N/A   Clear
3:35 AM 62.6 °F - 61.3 °F 96% 30.03 in 10.0 mi Calm Calm - N/A   Clear
4:16 AM 60.4 °F - 59.2 °F 96% 30.04 in 10.0 mi Calm Calm - N/A   Clear
4:35 AM 60.1 °F - 59.0 °F 96% 30.05 in 10.0 mi Calm Calm - N/A   Clear
4:55 AM 59.9 °F - 58.5 °F 95% 30.05 in 10.0 mi Calm Calm - N/A   Clear
5:16 AM 60.1 °F - 58.8 °F 96% 30.05 in 7.0 mi Calm Calm - N/A   Clear
5:35 AM 58.6 °F - 57.4 °F 96% 30.05 in 10.0 mi Calm Calm - N/A   Clear
5:56 AM 58.5 °F - 57.2 °F 96% 30.06 in 10.0 mi Calm Calm - N/A   Clear
6:15 AM 57.9 °F - 56.5 °F 95% 30.06 in 10.0 mi Calm Calm - N/A   Clear
6:36 AM 58.3 °F - 57.2 °F 96% 30.07 in 10.0 mi Calm Calm - N/A   Clear
6:55 AM 59.2 °F - 57.9 °F 96% 30.07 in 10.0 mi Calm Calm - N/A   Clear
7:16 AM 61.3 °F - 60.1 °F 96% 30.08 in 10.0 mi Calm Calm - N/A   Clear
7:36 AM 63.7 °F - 62.4 °F 96% 30.08 in 10.0 mi Calm Calm - N/A   Clear
7:56 AM 64.8 °F - 63.1 °F 94% 30.08 in 10.0 mi SE 3.5 mph - N/A   Clear
8:15 AM 66.4 °F - 62.8 °F 88% 30.09 in 10.0 mi Calm Calm - N/A   Clear
8:35 AM 68.4 °F - 62.4 °F 81% 30.09 in 10.0 mi SSE 4.6 mph - N/A   Clear
8:56 AM 69.8 °F - 62.8 °F 78% 30.09 in 10.0 mi South 3.5 mph - N/A   Clear
9:15 AM 71.1 °F - 61.9 °F 73% 30.09 in 10.0 mi Calm Calm - N/A   Clear
9:36 AM 73.0 °F - 62.1 °F 68% 30.09 in 10.0 mi SSE 4.6 mph - N/A   Clear
9:55 AM 74.3 °F - 59.9 °F 61% 30.09 in 10.0 mi SSE 4.6 mph - N/A   Clear
10:16 AM 75.4 °F - 61.0 °F 61% 30.09 in 10.0 mi SW 4.6 mph - N/A   Clear
10:35 AM 76.5 °F - 60.8 °F 58% 30.09 in 10.0 mi SSW 3.5 mph - N/A   Clear
10:55 AM 76.8 °F - 59.7 °F 55% 30.09 in 10.0 mi South 5.8 mph - N/A   Clear
11:15 AM 77.9 °F - 56.7 °F 48% 30.09 in 10.0 mi South 3.5 mph - N/A   Clear
11:36 AM 78.1 °F - 56.3 °F 47% 30.08 in 10.0 mi SW 4.6 mph - N/A   Clear
11:55 AM 79.5 °F - 56.8 °F 46% 30.08 in 10.0 mi West 3.5 mph - N/A   Clear
12:16 PM 79.9 °F - 55.9 °F 44% 30.07 in 10.0 mi SSW 4.6 mph - N/A   Clear
12:36 PM 80.4 °F 80.4 °F 55.6 °F 42% 30.06 in 10.0 mi Calm Calm - N/A   Clear
12:55 PM 81.1 °F 81.0 °F 55.9 °F 42% 30.06 in 10.0 mi SSW 3.5 mph - N/A   Clear
1:16 PM 81.9 °F - 50.9 °F 34% 30.05 in 10.0 mi SSW 4.6 mph - N/A   Clear
1:35 PM 82.4 °F - 52.2 °F 35% 30.04 in 10.0 mi SW 5.8 mph - N/A   Clear
1:56 PM 83.3 °F - 52.2 °F 34% 30.05 in 10.0 mi WSW 4.6 mph - N/A   Clear
2:15 PM 82.9 °F 81.8 °F 53.2 °F 36% 30.06 in 10.0 mi WSW 5.8 mph - N/A   Clear
2:35 PM 83.1 °F 81.9 °F 53.4 °F 36% 30.05 in 10.0 mi Calm Calm - N/A   Clear
2:56 PM 83.8 °F - 52.5 °F 34% 30.04 in 10.0 mi SSE 9.2 mph - N/A   Clear
3:16 PM 84.9 °F 83.3 °F 54.0 °F 34% 30.03 in 10.0 mi South 6.9 mph - N/A   Clear
3:36 PM 84.7 °F - 50.9 °F 31% 30.03 in 10.0 mi South 4.6 mph - N/A   Clear
3:55 PM 84.7 °F - 50.5 °F 31% 30.03 in 10.0 mi South 4.6 mph - N/A   Clear
4:15 PM 85.3 °F - 52.7 °F 33% 30.03 in 10.0 mi South 4.6 mph - N/A   Clear
4:35 PM 85.5 °F 84.0 °F 55.2 °F 35% 30.02 in 10.0 mi SW 3.5 mph - N/A   Clear
4:56 PM 84.2 °F 83.7 °F 57.9 °F 41% 30.02 in 10.0 mi Calm Calm - N/A   Clear
5:15 PM 84.6 °F 84.4 °F 60.1 °F 43% 30.01 in 10.0 mi Calm Calm - N/A   Clear
5:36 PM 84.9 °F 84.8 °F 60.3 °F 43% 30.01 in 7.0 mi SW 3.5 mph - N/A   Clear
5:55 PM 84.2 °F 84.4 °F 61.0 °F 45% 30.00 in 10.0 mi Calm Calm - N/A   Clear
6:15 PM 83.5 °F 84.3 °F 62.6 °F 49% 30.00 in 10.0 mi Calm Calm - N/A   Clear
6:36 PM 82.8 °F 83.6 °F 62.6 °F 50% 29.99 in 10.0 mi Calm Calm - N/A   Clear
6:55 PM 80.4 °F 82.2 °F 65.1 °F 59% 29.98 in 10.0 mi Calm Calm - N/A   Clear
7:16 PM 76.8 °F - 65.1 °F 67% 29.98 in 10.0 mi Calm Calm - N/A   Clear
7:35 PM 74.1 °F - 64.6 °F 72% 29.98 in 10.0 mi Calm Calm - N/A   Clear
7:56 PM 72.9 °F - 68.0 °F 85% 29.98 in 10.0 mi Calm Calm - N/A   Clear
8:15 PM 70.9 °F - 67.6 °F 89% 29.99 in 10.0 mi Calm Calm - N/A   Clear
8:35 PM 70.0 °F - 67.5 °F 92% 29.99 in 10.0 mi Calm Calm - N/A   Clear
8:56 PM 68.9 °F - 66.6 °F 92% 30.00 in 10.0 mi Calm Calm - N/A   Clear
9:16 PM 67.6 °F - 65.7 °F 93% 30.00 in 10.0 mi Calm Calm - N/A   Clear
9:35 PM 66.9 °F - 64.8 °F 93% 29.99 in 10.0 mi Calm Calm - N/A   Clear
9:56 PM 66.0 °F - 64.2 °F 94% 29.99 in 10.0 mi Calm Calm - N/A   Clear
10:15 PM 65.8 °F - 64.4 °F 95% 29.99 in 10.0 mi Calm Calm - N/A   Clear
10:35 PM 64.4 °F - 62.8 °F 94% 29.99 in 10.0 mi Calm Calm - N/A   Clear
10:56 PM 64.6 °F - 62.8 °F 94% 29.99 in 10.0 mi Calm Calm - N/A   Clear
11:15 PM 63.7 °F - 61.7 °F 93% 29.99 in 10.0 mi South 3.5 mph - N/A   Clear
11:36 PM 68.9 °F - 60.1 °F 73% 29.99 in 10.0 mi South 3.5 mph - N/A   Clear
11:55 PM 68.7 °F - 60.6 °F 75% 29.99 in 10.0 mi South 4.6 mph - N/A   Clear